Regional Weather Roundup
Issued by NWS

Home | Current Version | Previous Version | Graphics & Text | Print | Product List | Glossary Off
Versions: 1 2 3 4 5 6 7 8 9 10 11 12 13 14 15 16 17 18 19 20 21 22 23 24 25 26 27 28 29 30 31 32 33 34 35 36 37 38 39 40 41 42 43 44 45 46 47 48 49 50

000
ASUS43 KMPX 250810
RWRMN
WEATHER ROUNDUP FOR MINNESOTA
NATIONAL WEATHER SERVICE TWIN CITIES/CHANHASSEN MN
300 AM CDT SUN JUN 25 2017


NOTE: "FAIR" INDICATES FEW OR NO CLOUDS BELOW 12,000 FEET WITH NO
SIGNIFICANT WEATHER AND/OR OBSTRUCTIONS TO VISIBILITY. N/A MEANS
CURRENT SKY AND/OR WEATHER CONDITIONS ARE NOT AVAILABLE.

MNZ060>063-068>070-250900-
   Twin Cities Metro

CITY           SKY/WX    TMP DP  RH WIND       PRES   REMARKS
TWIN CITIES    CLOUDY    56  47  71 NW9       30.07S
ST PAUL        PTCLDY    55  49  80 NW12      30.08S
CRYSTAL        MOCLDY    56  45  66 NW12      30.06S
BLAINE         PTCLDY    55  48  76 NW7       30.07S
LAKEVILLE      MOCLDY    52  48  87 W3        30.08S
EDEN PRAIRIE   PTCLDY    56  48  74 W8        30.07S
SOUTH ST PAUL  CLOUDY    57  47  71 NW10      30.07S
LAKE ELMO      CLOUDY    55  48  76 NW12      30.07S
$$
MNZ001>005-007-008-013>017-022>024-027-028-250900-
   Northwest Minnesota

CITY           SKY/WX    TMP DP  RH WIND       PRES   REMARKS
BEMIDJI        DRIZZLE   49  48  97 NW13      30.09S
HALLOCK        CLEAR     43  41  93 NW7       30.18S
ROSEAU         CLOUDY    48  45  87 NW8       30.14S
WARROAD        LGT RAIN  48  45  87 NW8       30.14R
THIEF RVR FALL CLOUDY    49  46  90 NW12      30.16S
CROOKSTON      CLOUDY    48  46  93 NW13      30.18S
FOSSTON        CLOUDY    46  46 100 NW10      30.14S
DETROIT LAKES  CLOUDY    48  46  93 NW14      30.15S
MOORHEAD       CLOUDY    52  43  71 NW10      30.18S
PARK RAPIDS    CLOUDY    51  46  83 NW13      30.09S
MAHNOMEN       CLOUDY    49  46  89 NW14G20   30.14S
$$
MNZ006-009>011-018-025>026-250900-
   North Central Minnesota

CITY           SKY/WX    TMP DP  RH WIND       PRES   REMARKS
BAUDETTE       LGT RAIN  52  51  97 NW12      30.09S
FLAG ISLAND    HVY RAIN  52  48  87 NW16      30.10S
INTL FALLS     LGT RAIN  52  49  89 NW8       30.04S
WASKISH        LGT RAIN  52  52 100 NW9       30.08S
BIG FORK       CLOUDY    54  50  87 CALM      30.05R
LONGVILLE      HVY RAIN  54  52  94 NW6       30.05S
GRAND RAPIDS   CLOUDY    54  52  93 NW7       30.05S
CRANE LAKE     CLOUDY    54  52  94 CALM      30.04R
ORR            CLOUDY    52  48  87 CALM      30.00S
COOK           CLOUDY    54  52  94 CALM      30.02S
WALKER         DRIZZLE   50  49  97 NW13      30.07S
$$
MNZ012-019>021-037-250900-
   Northeast Minnesota

CITY           SKY/WX    TMP DP  RH WIND       PRES   REMARKS
DULUTH         CLOUDY    53  50  89 NW7       30.00R
ELY            CLOUDY    52  52 100 CALM      30.00S
HIBBING        CLOUDY    52  51  97 NW6       30.01S
EVELETH        CLOUDY    54  49  85 CALM      30.02R
DULUTH HARBOR  CLOUDY    57  52  82 W9        30.00S
TWO HARBORS    CLOUDY    57  52  82 CALM      29.97S
SILVER BAY     CLOUDY    55  52  88 CALM      29.96S
GRAND MARAIS     N/A     56  52  86 N10G18    29.94S
G MARAIS ARPRT CLOUDY    50  46  87 N7        29.98S
$$
MNZ029>031-032-039>041-046>048-054>057-064-250900-
   West Central Minnesota

CITY           SKY/WX    TMP DP  RH WIND       PRES   REMARKS
FERGUS FALLS   CLOUDY    50  43  76 NW13      30.15F
WHEATON        CLOUDY    52  43  71 W12       30.20S
MORRIS         PTCLDY    50  45  81 NW16      30.16S
ALEXANDRIA     CLOUDY    50  47  89 NW15      30.14S
ELBOW LAKE     CLOUDY    50  44  79 W14       30.16F
WADENA         CLOUDY    48  46  93 NW10G16   30.11S
GLENWOOD       CLOUDY    50  46  87 NW21G28   30.14R
APPLETON       CLOUDY    54  45  71 NW12      30.18R
BENSON         CLOUDY    52  45  76 N10       30.18S
ORTONVILLE     CLEAR     52  43  71 NW13G20   30.19S
MADISON        CLEAR     54  45  71 NW9       30.19S
WILLMAR        CLOUDY    52  46  82 NW15G21   30.16S
$$
MNZ033>034-036-042>043-049>051-058-059-250900-
   Central Minnesota

CITY           SKY/WX    TMP DP  RH WIND       PRES   REMARKS
ST CLOUD       CLOUDY    53  49  86 NW13G20   30.08F
SAUK CENTRE    CLOUDY    51  47  86 NW13G18   30.11F
PAYNESVILLE    CLOUDY    52  46  80 NW12G20   30.12S
AITKIN         CLOUDY    52  48  87 CALM      30.03F
PINE RIVER     CLOUDY    52  52 100 W7        30.09S
BRAINERD       CLOUDY    53  50  89 NW10      30.07S
STAPLES        CLOUDY    50  46  87 NW10      30.09S
LONG PRAIRIE   CLOUDY    50  46  87 W15G21    30.11S
LITTLE FALLS   CLOUDY    52  45  76 W12       30.09S
LITCHFIELD     CLOUDY    55  48  76 NW12      30.12R
BUFFALO        CLOUDY    55  46  71 W8        30.09S
MAPLE LAKE     CLOUDY    56  49  78 NW12      30.10S
HUTCHINSON     CLOUDY    55  48  78 W8        30.13R
$$
MNZ037-044-045-052-053-250900-
   East Central Minnesota

CITY           SKY/WX    TMP DP  RH WIND       PRES   REMARKS
PRINCETON      CLOUDY    55  48  76 W8        30.08S
MORA           CLEAR     50  46  87 NW7       30.06F
CAMBRIDGE      PTCLDY    55  45  67 W7        30.05S
RUSH CITY      MOCLDY    50  46  87 W5        30.05S
MOOSE LAKE     MOCLDY    50  46  87 W6        30.01S
HINCKLEY       FAIR      52  50  93 NW6       30.04S
CLOQUET        CLOUDY    52  48  87 W8        30.01S
MCGREGOR       CLOUDY    52  50  93 W6        30.04S
$$
MNZ071>073-080-081-089-090-097-098-250900-
   Southwest Minnesota

CITY           SKY/WX    TMP DP  RH WIND       PRES   REMARKS
MONTEVIDEO     CLOUDY    52  45  76 N12G20    30.18R
GRANITE FALLS  CLOUDY    55  47  73 NW13G21   30.18S
CANBY          CLEAR     51  44  76 CALM      30.21S
MARSHALL       CLEAR     53  43  68 NW16      30.18S
REDWOOD FALLS  CLOUDY    55  44  66 NW14G21   30.15S
OLIVIA         CLOUDY    54  46  76 NW15G21   30.14S
PIPESTONE      CLEAR     54  45  71 NW7       30.20S
WINDOM         PTCLDY    54  45  71 W13       30.17S
WORTHINGTON    CLEAR     50  45  83 W9        30.20S
JACKSON        CLEAR     52  45  76 NW10      30.18S
TRACY          PTCLDY    54  47  77 NW12      30.18S
SLAYTON        CLEAR     51  45  78 W7        30.20S
$$
MNZ065>067-074>077-082>085-091>093-250900-
   South Central Minnesota

CITY           SKY/WX    TMP DP  RH WIND       PRES   REMARKS
MANKATO        CLEAR     53  47  79 W13       30.13S
NEW ULM        PTCLDY    54  45  71 NW14G20   30.13S
ST JAMES       PTCLDY    54  45  71 W10G16    30.15F
FAIRMONT       PTCLDY    52  45  77 NW10      30.15F
GLENCOE        CLOUDY    56  51  83 W12G20    30.10S
FARIBAULT      PTCLDY    54  48  82 W8        30.10S
OWATONNA       CLEAR     52  46  82 W8        30.10S
WASECA         PTCLDY    52  46  82 W8        30.12S
ALBERT LEA     CLEAR     52  45  76 W5        30.12S
$$
MNZ078>079-086>088-094>096-250900-
   Southeast Minnesota

CITY           SKY/WX    TMP DP  RH WIND       PRES   REMARKS
ROCHESTER      CLEAR     49  46  90 W9        30.09F
RED WING       MOCLDY    54  46  76 W5        30.06S
STANTON        PTCLDY    53  48  82 W6        30.07S
DODGE CENTER   CLEAR     52  45  76 W8        30.09F
WINONA         CLEAR     52  46  82 NW6       30.07R
AUSTIN         CLEAR     52  45  76 W9        30.10S
PRESTON        CLEAR     49  44  81 W8        30.09S
$$
ABBREVIATIONS USED IN REMARKS
   TC - TEMPERATURES IN CELSIUS
  WCI - WIND CHILL INDEX
   HX - HEAT INDEX
  VSB - VISIBILITY
$$




USA.gov is the U.S. government's official web portal to all federal, state and local government web resources and services.